When you browse on this site, cookies collect data to enhance your experience and personalize the content and advertising you see.
Visit our Privacy Policy to learn more. By continuing to use the site, you agree to this use of cookies and data.
  • In Spain
  • List of Countries
  • For 7 days
  • Water Temperature
  • Weather Map
  • Weather Widgets
  • user-avatar
    Login

    Hourly Weather Campo Grande

    Today, 22 February, Saturday

    Time Temperature Precipitation Wind Pressure Humidity
    00:00 +24°C° 0.2 mm 1 mps 710 mmHg 88%
    01:00 +24°C° 0.2 mm 1 mps 709 mmHg 89%
    02:00 +23°C° 0 mm 1 mps 709 mmHg 89%
    03:00 +23°C° 0 mm 2 mps 710 mmHg 88%
    04:00 +21°C° 0 mm 3 mps 710 mmHg 87%
    05:00 +20°C° 0 mm 4 mps 710 mmHg 86%
    06:00 +20°C° 0 mm 4 mps 710 mmHg 84%
    07:00 +19°C° 0 mm 4 mps 711 mmHg 81%
    08:00 +20°C° 0 mm 4 mps 711 mmHg 80%
    09:00 +22°C° 0 mm 4 mps 712 mmHg 75%
    10:00 +24°C° 0 mm 3 mps 712 mmHg 69%
    11:00 +26°C° 0 mm 3 mps 712 mmHg 64%
    12:00 +26°C° 0 mm 3 mps 712 mmHg 64%
    13:00 +27°C° 0 mm 2 mps 711 mmHg 65%
    14:00 +27°C° 0 mm 2 mps 711 mmHg 65%
    15:00 +27°C° 0 mm 2 mps 710 mmHg 70%
    16:00 +26°C° 0 mm 2 mps 710 mmHg 74%
    17:00 +25°C° 0 mm 3 mps 710 mmHg 78%
    18:00 +24°C° 0 mm 3 mps 710 mmHg 77%
    19:00 +23°C° 0 mm 2 mps 710 mmHg 77%
    20:00 +21°C° 0 mm 2 mps 711 mmHg 76%
    21:00 +20°C° 0 mm 2 mps 710 mmHg 75%
    22:00 +20°C° 0 mm 2 mps 710 mmHg 73%
    23:00 +19°C° 0 mm 2 mps 710 mmHg 72%

    Tomorrow, 23 February, Sunday

    Time Temperature Precipitation Wind Pressure Humidity
    00:00 +19°C° 0 mm 2 mps 710 mmHg 72%
    01:00 +19°C° 0 mm 2 mps 710 mmHg 73%
    02:00 +19°C° 0 mm 2 mps 709 mmHg 73%
    03:00 +19°C° 0 mm 2 mps 709 mmHg 73%
    04:00 +19°C° 0 mm 2 mps 710 mmHg 72%
    05:00 +18°C° 0 mm 2 mps 710 mmHg 72%
    06:00 +20°C° 0 mm 2 mps 710 mmHg 72%
    07:00 +21°C° 0 mm 2 mps 711 mmHg 71%
    08:00 +23°C° 0 mm 2 mps 711 mmHg 71%
    09:00 +25°C° 0 mm 2 mps 711 mmHg 70%
    10:00 +26°C° 0 mm 2 mps 712 mmHg 70%
    11:00 +27°C° 0 mm 2 mps 712 mmHg 69%
    12:00 +27°C° 0 mm 1 mps 711 mmHg 69%
    13:00 +28°C° 0 mm 1 mps 710 mmHg 68%
    14:00 +29°C° 0 mm 1 mps 710 mmHg 68%
    15:00 +28°C° 0.6 mm 1 mps 709 mmHg 72%
    16:00 +27°C° 0.6 mm 1 mps 709 mmHg 77%
    17:00 +27°C° 0.6 mm 1 mps 709 mmHg 81%
    18:00 +26°C° 0 mm 1 mps 709 mmHg 85%
    19:00 +25°C° 0 mm 2 mps 709 mmHg 89%
    20:00 +24°C° 0 mm 2 mps 709 mmHg 92%
    21:00 +23°C° 0 mm 2 mps 709 mmHg 93%
    22:00 +23°C° 0 mm 2 mps 709 mmHg 93%
    23:00 +22°C° 0 mm 3 mps 709 mmHg 93%

    Day after tomorrow, 24 February, Monday

    Time Temperature Precipitation Wind Pressure Humidity
    00:00 +23°C° 0 mm 2 mps 709 mmHg 93%
    01:00 +21°C° 0 mm 2 mps 708 mmHg 93%
    02:00 +21°C° 0 mm 2 mps 708 mmHg 92%
    03:00 +21°C° 0 mm 2 mps 708 mmHg 93%
    04:00 +21°C° 0 mm 2 mps 708 mmHg 93%
    05:00 +21°C° 0 mm 2 mps 708 mmHg 93%
    06:00 +23°C° 0 mm 2 mps 709 mmHg 89%
    07:00 +24°C° 0 mm 2 mps 709 mmHg 85%
    08:00 +26°C° 0 mm 2 mps 710 mmHg 82%
    09:00 +27°C° 0 mm 2 mps 710 mmHg 77%
    10:00 +29°C° 0 mm 2 mps 710 mmHg 71%
    11:00 +30°C° 0 mm 2 mps 710 mmHg 66%
    12:00 +30°C° 1.2 mm 2 mps 709 mmHg 68%
    13:00 +30°C° 1.2 mm 2 mps 708 mmHg 69%
    14:00 +30°C° 1.2 mm 2 mps 708 mmHg 71%
    15:00 +30°C° 2.5 mm 2 mps 707 mmHg 75%
    16:00 +29°C° 2.5 mm 2 mps 707 mmHg 80%
    17:00 +28°C° 2.5 mm 1 mps 706 mmHg 84%
    18:00 +27°C° 0.8 mm 1 mps 706 mmHg 86%
    19:00 +26°C° 0.8 mm 1 mps 707 mmHg 87%
    20:00 +23°C° 0.8 mm 0 mps 707 mmHg 89%
    21:00 +25°C° 0.1 mm 1 mps 707 mmHg 89%
    22:00 +25°C° 0.1 mm 1 mps 707 mmHg 90%
    23:00 +24°C° 0.1 mm 1 mps 708 mmHg 91%

    25 February, Tuesday

    Time Temperature Precipitation Wind Pressure Humidity
    00:00 +24°C° 0 mm 1 mps 707 mmHg 91%
    01:00 +24°C° 0 mm 1 mps 707 mmHg 92%
    02:00 +24°C° 0 mm 1 mps 707 mmHg 92%
    03:00 +24°C° 0 mm 1 mps 707 mmHg 92%
    04:00 +24°C° 0 mm 2 mps 707 mmHg 93%
    05:00 +23°C° 0 mm 2 mps 707 mmHg 93%
    06:00 +24°C° 0.2 mm 2 mps 708 mmHg 91%
    07:00 +25°C° 0.2 mm 3 mps 708 mmHg 90%
    08:00 +26°C° 0.2 mm 4 mps 709 mmHg 88%
    09:00 +27°C° 0.7 mm 4 mps 709 mmHg 84%
    10:00 +28°C° 0.7 mm 4 mps 709 mmHg 81%
    11:00 +29°C° 0.7 mm 4 mps 709 mmHg 77%
    12:00 +29°C° 1.7 mm 4 mps 708 mmHg 78%
    13:00 +29°C° 1.7 mm 4 mps 708 mmHg 78%
    14:00 +29°C° 1.7 mm 4 mps 707 mmHg 79%
    15:00 +29°C° 0.8 mm 4 mps 707 mmHg 82%
    16:00 +28°C° 0.8 mm 3 mps 706 mmHg 84%
    17:00 +27°C° 0.8 mm 3 mps 706 mmHg 87%
    18:00 +27°C° 0.1 mm 2 mps 706 mmHg 88%
    19:00 +26°C° 0.1 mm 2 mps 707 mmHg 89%
    20:00 +25°C° 0.1 mm 2 mps 707 mmHg 90%
    21:00 +25°C° 0 mm 2 mps 707 mmHg 90%
    22:00 +25°C° 0 mm 2 mps 708 mmHg 90%
    23:00 +25°C° 0 mm 2 mps 708 mmHg 89%

    26 February, Wednesday

    Time Temperature Precipitation Wind Pressure Humidity
    00:00 +25°C° 1.5 mm 3 mps 707 mmHg 90%
    01:00 +24°C° 1.5 mm 3 mps 707 mmHg 91%
    02:00 +24°C° 1.5 mm 3 mps 706 mmHg 92%
    03:00 +24°C° 1.7 mm 3 mps 706 mmHg 93%
    04:00 +24°C° 1.7 mm 3 mps 706 mmHg 93%
    05:00 +24°C° 1.7 mm 3 mps 706 mmHg 94%
    06:00 +24°C° 0.7 mm 3 mps 707 mmHg 92%
    07:00 +25°C° 0.7 mm 4 mps 707 mmHg 90%
    08:00 +26°C° 0.7 mm 4 mps 708 mmHg 89%
    09:00 +27°C° 2 mm 5 mps 708 mmHg 87%
    10:00 +27°C° 2 mm 5 mps 708 mmHg 85%
    11:00 +28°C° 2 mm 6 mps 708 mmHg 84%
    12:00 +28°C° 1.8 mm 5 mps 708 mmHg 85%
    13:00 +27°C° 1.8 mm 4 mps 707 mmHg 85%
    14:00 +27°C° 1.8 mm 3 mps 707 mmHg 86%
    15:00 +27°C° 0.3 mm 2 mps 707 mmHg 87%
    16:00 +26°C° 0.3 mm 2 mps 706 mmHg 88%
    17:00 +26°C° 0.3 mm 1 mps 706 mmHg 89%
    18:00 +25°C° 0.1 mm 2 mps 706 mmHg 90%
    19:00 +25°C° 0.1 mm 2 mps 706 mmHg 92%
    20:00 +24°C° 0.1 mm 2 mps 707 mmHg 93%
    21:00 +24°C° 0 mm 2 mps 707 mmHg 92%
    22:00 +23°C° 0 mm 2 mps 707 mmHg 92%
    23:00 +23°C° 0 mm 2 mps 708 mmHg 91%

    27 February, Thursday

    Time Temperature Precipitation Wind Pressure Humidity
    00:00 +23°C° 0 mm 2 mps 707 mmHg 91%
    01:00 +23°C° 0 mm 1 mps 707 mmHg 91%
    02:00 +23°C° 0 mm 1 mps 707 mmHg 91%
    03:00 +23°C° 0 mm 1 mps 707 mmHg 91%
    04:00 +23°C° 0 mm 2 mps 707 mmHg 91%
    05:00 +21°C° 0 mm 2 mps 707 mmHg 91%
    06:00 +23°C° 0 mm 2 mps 707 mmHg 88%
    07:00 +24°C° 0 mm 2 mps 708 mmHg 86%
    08:00 +25°C° 0 mm 3 mps 708 mmHg 83%
    09:00 +27°C° 0 mm 3 mps 709 mmHg 75%
    10:00 +28°C° 0 mm 3 mps 709 mmHg 66%
    11:00 +29°C° 0 mm 3 mps 709 mmHg 58%
    12:00 +30°C° 0 mm 3 mps 708 mmHg 58%
    13:00 +30°C° 0 mm 3 mps 708 mmHg 57%
    14:00 +30°C° 0 mm 3 mps 707 mmHg 57%
    15:00 +29°C° 0 mm 3 mps 707 mmHg 62%
    16:00 +29°C° 0 mm 3 mps 706 mmHg 67%
    17:00 +28°C° 0 mm 3 mps 706 mmHg 73%
    18:00 +26°C° 0 mm 3 mps 706 mmHg 75%
    19:00 +25°C° 0 mm 2 mps 707 mmHg 76%
    20:00 +23°C° 0 mm 2 mps 707 mmHg 78%
    21:00 +23°C° 0 mm 2 mps 707 mmHg 79%
    22:00 +23°C° 0 mm 2 mps 708 mmHg 79%
    23:00 +23°C° 0 mm 2 mps 708 mmHg 79%
    Show more